LKPR Weather Reports


Display with metric or nautical units.
time (UTC)temp
F
wind
direction
speed
MPH
gust
MPH
rain 1hr
in
rain 24hr
in
rain mn
in
humidity
%
barometer
mb
20260508081801 50 280 5.0 0.0 0.00 0.00 0.00 81
20260508080202 50 300 7.0 0.0 0.00 0.00 0.00 87 1018.0
20260508073202 50 320 5.0 0.0 0.00 0.00 0.00 81 1018.0
20260508071905 48 340 5.0 0.0 0.00 0.00 0.00 87
20260508070202 48 0 3.0 0.0 0.00 0.00 0.00 87 1018.0
20260508063203 48 360 6.0 0.0 0.00 0.00 0.00 87 1017.0
20260508061804 48 360 5.0 0.0 0.00 0.00 0.00 87
20260508060203 48 360 6.0 0.0 0.00 0.00 0.00 87 1017.0
20260508053203 46 10 8.0 0.0 0.00 0.00 0.00 93 1017.0
20260508051803 46 360 7.0 0.0 0.00 0.00 0.00 93
20260508050203 46 350 8.0 0.0 0.00 0.00 0.00 93 1017.0
20260508044203 46 340 7.0 0.0 0.00 0.00 0.00 93 1017.0
20260508043202 46 340 7.0 0.0 0.00 0.00 0.00 93 1017.0
20260508042018 46 340 5.0 0.0 0.00 0.00 0.00 93
20260508040203 46 340 6.0 0.0 0.00 0.00 0.00 93 1017.0
20260508033203 46 350 6.0 0.0 0.00 0.00 0.00 93 1017.0
20260508031801 46 340 5.0 0.0 0.00 0.00 0.00 93
20260508030203 46 340 6.0 0.0 0.00 0.00 0.00 93 1016.0
20260508023202 46 340 7.0 0.0 0.00 0.00 0.00 93 1016.0
20260508021802 46 350 7.0 0.0 0.00 0.00 0.00 87
20260508020202 46 350 8.0 0.0 0.00 0.00 0.00 93 1016.0
20260508013203 46 340 7.0 0.0 0.00 0.00 0.00 93 1016.0
20260508011901 46 340 7.0 0.0 0.00 0.00 0.00 93
20260508010203 46 340 8.0 0.0 0.00 0.00 0.00 93 1016.0
20260508003202 46 350 9.0 0.0 0.00 0.00 0.00 93 1016.0
20260508001801 46 350 9.0 0.0 0.00 0.00 0.00 99
20260508000204 46 340 8.0 0.0 0.00 0.00 0.00 100 1016.0
20260507233202 46 340 9.0 0.0 0.00 0.00 0.00 100 1016.0
20260507231801 46 340 7.0 0.0 0.00 0.00 0.00 99
20260507230303 48 350 7.0 0.0 0.00 0.00 0.00 93 1016.0
20260507223202 48 360 7.0 0.0 0.00 0.00 0.00 93 1016.0
20260507222105 48 350 9.0 0.0 0.00 0.00 0.00 93
20260507220204 48 340 8.0 0.0 0.00 0.00 0.00 93 1016.0
20260507213202 48 360 9.0 0.0 0.00 0.00 0.00 100 1016.0
20260507211804 48 20 9.0 0.0 0.00 0.00 0.00 93
20260507210203 50 10 8.0 0.0 0.00 0.00 0.00 93 1016.0
20260507205503 50 10 8.0 0.0 0.00 0.00 0.00 93 1016.0
20260507203202 50 10 8.0 0.0 0.00 0.00 0.00 93 1015.0
20260507201806 50 350 7.0 0.0 0.00 0.00 0.00 93
20260507200203 50 340 9.0 0.0 0.00 0.00 0.00 93 1015.0
20260507193203 50 340 9.0 0.0 0.00 0.00 0.00 100 1015.0
20260507191905 50 330 9.0 0.0 0.00 0.00 0.00 93
20260507190408 50 320 10.0 0.0 0.00 0.00 0.00 100 1014.0
20260507183203 50 330 10.0 0.0 0.00 0.00 0.00 100 1014.0
20260507181902 52 300 10.0 0.0 0.00 0.00 0.00 93 1014.0
20260507181802 52 290 7.0 0.0 0.00 0.00 0.00 87
20260507180202 54 280 9.0 0.0 0.00 0.00 0.00 87 1014.0
20260507174503 54 270 8.0 0.0 0.00 0.00 0.00 87 1014.0
20260507173203 54 270 6.0 0.0 0.00 0.00 0.00 87 1013.0
20260507171802 54 280 7.0 0.0 0.00 0.00 0.00 81
20260507170203 54 270 9.0 0.0 0.00 0.00 0.00 81 1013.0
20260507165306 54 270 9.0 0.0 0.00 0.00 0.00 87 1013.0
20260507163201 55 270 14.0 0.0 0.00 0.00 0.00 76 1013.0
20260507162109 55 260 14.0 0.0 0.00 0.00 0.00 71
20260507160409 55 260 13.0 0.0 0.00 0.00 0.00 71 1013.0
20260507153427 55 260 15.0 0.0 0.00 0.00 0.00 71 1012.0
20260507153202 55 260 15.0 0.0 0.00 0.00 0.00 71 1012.0
20260507151801 55 260 14.0 0.0 0.00 0.00 0.00 66
20260507150202 55 260 17.0 0.0 0.00 0.00 0.00 71 1012.0
20260507144402 57 250 20.0 0.0 0.00 0.00 0.00 67 1012.0
20260507143202 59 250 14.0 0.0 0.00 0.00 0.00 62 1012.0
20260507141805 59 250 14.0 0.0 0.00 0.00 0.00 62
20260507140202 59 240 14.0 0.0 0.00 0.00 0.00 62 1012.0
20260507133202 61 230 14.0 0.0 0.00 0.00 0.00 59 1012.0
20260507131906 61 230 16.0 0.0 0.00 0.00 0.00 59
20260507130203 61 230 14.0 0.0 0.00 0.00 0.00 59 1012.0
20260507123203 61 230 15.0 0.0 0.00 0.00 0.00 63 1012.0
20260507121803 59 230 16.0 0.0 0.00 0.00 0.00 62
20260507120203 59 230 16.0 0.0 0.00 0.00 0.00 62 1012.0
20260507113202 57 230 15.0 0.0 0.00 0.00 0.00 67 1012.0
20260507111804 57 240 16.0 0.0 0.00 0.00 0.00 62
20260507110409 57 240 15.0 0.0 0.00 0.00 0.00 67 1012.0
20260507105504 57 230 15.0 0.0 0.00 0.00 0.00 67 1011.0
20260507103203 57 240 13.0 0.0 0.00 0.00 0.00 67 1011.0
20260507102003 57 240 14.0 0.0 0.00 0.00 0.00 62
20260507100203 57 240 16.0 0.0 0.00 0.00 0.00 67 1011.0
20260507093202 57 220 16.0 0.0 0.00 0.00 0.00 67 1011.0
20260507091802 57 240 16.0 0.0 0.00 0.00 0.00 67
20260507090203 57 230 16.0 0.0 0.00 0.00 0.00 67 1011.0
20260507083203 57 230 13.0 24.0 0.00 0.00 0.00 76 1011.0